Location: Franzen
(48.6167°N, 15.3833°E)
Time: 13:29:27
(UTC+00:00)

ARIANE 5 R/B - Pass Details

Date: 31 July 2021
Orbit: 622 x 654 km, 98.1° (Epoch: 23 September)

Event Time Altitude Azimuth Distance (km) Brightness Sun altitude
Exits shadow 19:35:46 11° 130° (SE) 1,955 4.4 -8.7°
Maximum altitude 19:39:33 35° 67° (ENE) 1,049 3.5 -9.2°
Drops below altitude 10° 19:43:34 10° 2° (N) 2,038 5.8 -9.7°
Sets 19:45:54 0° 354° (N) 2,946 6.9 -10.0°
